Theta_e
315 315 315 315 315 316 316 315 316 316 315 313 308 306 305 305 306 306 306 307 308 308 308 308 307 307 307 309 309 311 312 314 317 318 321 320 314 314 313 313 314 313 313 313 313 314 314 315 315 315 317 319 322 324 322 322 324 324 326 322 319 321 320 319 320 319 319 318 316 315 316 316 316 314 315 315 315 316 316 316 318 318 317 319 327 332 331 330
315 314 315 314 315 315 315 315 315 316 315 313 310 307 305 305 305 306 306 307 308 308 308 308 307 307 308 309 310 312 313 315 319 322 320 316 312 314 314 315 315 314 313 315 316 314 314 315 315 315 318 320 321 323 323 322 322 323 325 321 320 322 319 319 318 318 319 318 316 316 316 316 316 315 315 315 315 315 316 317 317 319 318 317 324 329 329 328
314 314 314 314 315 315 314 314 314 316 315 313 311 308 305 305 305 306 306 307 308 308 307 307 307 307 308 309 311 312 315 319 321 321 317 313 314 315 315 315 315 314 314 317 317 315 315 315 315 315 317 318 318 321 322 322 321 321 324 322 320 320 318 318 317 317 318 317 317 316 316 317 316 315 315 315 315 315 316 317 317 318 319 318 320 326 327 328
314 314 313 313 314 314 314 313 314 314 313 312 311 308 306 305 305 306 307 306 307 307 307 307 307 308 308 310 312 313 319 322 320 319 315 313 314 314 315 316 316 315 315 315 315 315 315 315 315 315 317 317 318 319 319 320 321 319 318 319 319 318 318 316 316 316 317 318 317 316 316 317 317 316 315 315 316 316 316 317 317 316 319 319 317 323 327 328
314 313 313 313 313 313 313 312 313 313 312 312 311 308 307 305 305 305 306 307 307 307 307 307 307 308 308 311 311 315 322 319 317 318 314 313 314 314 316 316 316 316 316 315 315 315 314 315 315 316 317 317 317 318 317 316 318 318 316 317 317 317 317 315 315 316 317 318 317 317 316 316 316 316 316 316 316 316 317 317 318 318 320 320 317 321 325 327
314 313 313 313 313 313 312 312 313 312 312 312 310 308 307 306 305 305 306 307 307 307 307 307 307 307 309 312 311 316 321 316 318 319 313 313 314 315 316 316 316 316 316 316 316 316 315 316 316 316 317 317 317 316 316 315 317 318 316 316 317 317 316 314 314 315 317 317 317 316 316 316 316 316 316 316 316 316 318 319 319 320 322 319 317 321 323 326
314 313 313 313 312 312 312 312 312 312 312 312 311 309 307 306 305 305 306 307 307 307 307 307 307 308 310 312 312 318 320 316 318 317 313 313 314 315 316 316 316 316 317 317 317 316 316 316 315 316 317 316 317 315 316 316 316 317 316 316 316 316 315 315 314 314 316 317 316 316 316 317 316 316 317 317 316 317 318 319 316 317 320 320 319 320 321 323
314 313 313 313 312 312 312 312 312 311 312 312 311 309 307 306 305 306 306 307 307 307 307 307 307 308 311 314 318 320 318 319 318 314 312 313 314 315 317 317 316 316 318 317 317 316 316 317 315 317 317 317 317 316 317 316 315 317 317 316 316 316 315 314 314 314 315 315 315 316 315 316 316 315 317 318 317 317 318 318 316 316 317 320 322 322 322 322
314 313 312 313 311 311 312 312 312 312 311 311 310 308 307 306 305 306 306 307 307 307 308 307 308 309 310 316 322 319 317 320 317 313 312 313 314 315 317 318 316 317 317 317 317 317 317 317 317 318 318 317 317 316 317 317 317 317 316 317 317 316 315 314 314 314 315 315 315 316 315 316 317 315 316 317 317 317 318 319 318 318 317 318 322 323 323 322
314 313 312 312 311 310 311 311 312 312 311 311 310 309 307 306 306 306 306 307 307 307 308 307 309 310 311 316 318 316 318 318 315 313 313 312 314 316 317 316 316 318 318 317 318 317 318 318 318 319 318 318 317 317 318 318 317 317 317 317 317 316 315 316 316 315 316 316 315 316 316 317 317 316 316 318 319 318 318 319 318 318 318 317 319 321 320 320
314 314 313 312 310 310 310 310 311 311 310 310 310 308 307 307 306 306 306 307 307 308 307 308 310 311 316 318 316 316 318 317 314 313 312 312 313 316 317 315 316 318 318 318 318 317 318 318 318 319 319 318 317 317 317 317 317 317 318 318 317 317 316 316 316 315 316 316 315 316 317 317 317 317 317 319 320 319 319 319 318 319 319 318 318 319 319 319
314 314 313 312 311 310 310 310 310 310 309 309 309 309 308 307 306 306 307 307 308 308 308 309 310 312 317 318 316 317 317 316 315 312 312 314 315 316 316 315 316 317 317 318 316 316 316 317 318 318 318 318 317 317 316 316 317 317 317 318 317 318 317 316 316 317 316 316 316 316 317 317 318 319 318 319 320 319 319 318 319 320 319 319 319 319 321 320
314 314 313 313 312 310 309 309 310 310 308 308 310 309 308 306 306 306 306 307 308 308 309 311 311 313 316 316 317 318 316 314 313 312 313 314 316 316 316 316 316 316 317 317 315 314 315 316 318 318 318 318 317 316 317 316 317 318 317 317 318 318 317 318 317 317 316 316 317 316 317 319 318 318 318 320 320 319 319 319 319 321 320 320 321 321 323 321
314 314 313 312 311 310 309 309 309 309 308 309 310 309 307 306 306 306 307 308 308 309 311 311 312 315 315 314 317 317 315 314 313 314 314 315 317 316 315 315 315 316 316 315 315 315 316 317 318 318 317 318 317 316 317 317 317 318 318 318 319 317 317 319 318 318 316 316 318 316 317 319 317 319 320 320 320 319 319 319 319 320 320 321 322 323 324 322
314 313 312 312 311 310 309 309 309 309 309 310 310 309 307 305 305 306 307 308 309 311 312 312 313 316 315 313 317 317 313 313 315 315 314 316 317 316 315 315 315 315 315 315 315 316 317 318 318 318 316 317 318 318 318 317 317 318 317 317 319 317 318 320 318 318 318 316 317 317 318 319 317 319 320 319 319 319 319 319 319 320 320 321 322 323 323 322
313 313 312 311 310 309 309 308 310 310 310 310 310 309 307 306 306 307 308 309 311 311 313 316 315 314 314 315 317 316 314 316 317 315 314 317 318 317 316 315 316 316 315 315 316 317 317 317 320 320 317 316 318 319 319 318 317 319 317 316 319 318 318 319 318 317 318 317 316 317 318 318 318 319 320 319 318 318 318 319 319 320 320 321 322 322 322 322
313 312 312 311 310 309 308 308 310 310 310 310 310 309 309 309 308 309 310 311 312 311 313 318 314 312 313 314 316 316 317 319 317 314 315 317 318 317 316 316 317 316 316 316 317 318 317 317 319 320 317 316 317 318 319 317 316 318 318 316 318 320 317 316 317 318 318 318 317 318 318 317 317 318 320 320 319 320 320 319 320 320 320 322 322 322 322 322
312 312 312 311 310 309 308 309 310 310 310 310 311 312 312 312 312 313 313 312 314 312 310 313 312 312 312 311 315 317 319 318 316 315 315 316 316 316 317 317 317 317 317 317 316 317 318 317 317 319 318 316 317 318 319 319 316 318 319 316 316 318 316 315 317 318 318 317 317 318 318 317 317 317 318 319 319 320 320 320 319 319 319 320 322 322 322 322
312 312 312 310 309 309 309 309 310 311 311 311 312 314 314 314 316 317 316 314 313 310 309 312 311 313 313 313 317 318 318 317 315 315 314 315 316 316 317 317 317 318 317 317 317 317 319 319 318 321 321 318 318 318 319 319 316 317 319 317 316 315 315 315 317 317 317 318 317 317 317 316 317 317 317 318 319 320 320 320 319 319 320 319 320 321 322 323
311 312 311 310 309 309 309 309 310 310 311 313 315 315 314 314 314 315 316 315 313 311 312 313 311 313 316 317 317 316 316 316 316 316 315 315 316 316 316 317 319 319 317 319 320 318 319 321 321 322 322 318 317 317 317 316 315 315 317 317 316 316 315 317 318 317 316 317 317 317 317 317 316 317 317 318 318 319 319 319 320 320 321 321 320 321 323 323
311 311 311 310 309 309 309 309 310 310 312 314 317 318 314 310 311 312 314 312 313 314 314 314 313 315 318 317 315 316 316 316 316 317 315 315 316 317 317 317 319 319 318 320 320 318 318 322 323 321 319 317 316 317 317 316 315 315 317 317 317 318 318 318 319 317 316 318 318 318 317 317 317 316 317 318 318 319 319 318 319 320 320 321 322 322 323 322
311 311 310 309 309 309 309 310 310 311 312 314 317 321 317 313 313 314 312 309 311 315 314 313 313 315 318 316 315 317 317 315 316 318 316 315 317 317 317 317 317 318 319 320 320 319 319 321 321 318 317 318 317 317 316 315 317 317 317 318 319 321 320 318 320 318 316 318 319 319 319 317 317 317 317 318 318 318 319 319 319 320 320 320 321 324 324 323
311 310 310 310 309 309 310 310 310 311 312 314 317 320 319 315 314 314 315 311 312 316 314 313 313 314 316 316 316 318 318 315 317 318 316 315 317 317 316 316 316 318 319 318 319 320 319 319 318 318 318 317 316 316 316 316 318 320 319 318 320 323 321 317 319 320 318 318 320 321 321 319 318 319 318 317 318 318 319 321 321 323 322 321 322 325 327 326
311 310 311 311 309 309 310 310 310 311 313 315 317 319 317 314 312 314 317 314 313 316 315 314 315 315 315 315 316 317 317 315 318 317 315 315 317 316 317 316 315 318 318 316 318 319 319 318 319 319 318 317 317 317 318 316 317 321 323 320 320 321 320 318 319 322 320 320 323 324 322 321 322 323 321 319 320 319 319 321 322 323 323 323 325 327 329 329
312 311 311 311 310 310 310 311 311 312 314 315 316 318 316 313 312 314 316 314 314 317 315 314 316 315 315 315 315 317 315 315 318 317 315 316 316 316 317 316 315 316 317 317 316 317 318 318 320 321 319 318 319 319 320 320 317 319 324 324 321 320 321 323 325 325 322 320 324 325 322 323 324 325 325 323 323 322 321 322 323 323 323 325 327 328 329 330
312 311 312 311 311 311 310 312 313 313 315 316 316 317 314 312 312 314 316 315 313 315 313 312 313 312 314 316 316 316 313 314 318 316 315 316 316 315 316 316 316 316 316 317 317 317 319 318 320 324 323 323 322 320 323 324 317 315 324 328 326 323 324 326 326 325 323 320 323 325 323 320 318 320 324 325 327 326 324 325 325 324 323 326 329 329 330 331
313 311 312 312 311 311 311 314 314 314 315 315 316 315 311 311 313 314 315 315 314 314 312 311 310 311 314 316 315 313 313 315 317 316 316 316 316 315 315 315 316 315 316 319 320 319 320 321 323 325 326 327 324 321 323 323 318 320 327 329 326 323 324 326 325 325 325 323 324 326 324 321 318 317 321 322 324 326 324 324 325 324 323 326 330 332 333 332
314 312 312 312 311 311 313 316 315 314 315 315 315 314 311 311 312 312 313 315 316 315 314 312 309 312 315 315 315 312 312 315 316 317 316 315 316 315 315 315 315 316 317 319 320 320 321 324 327 326 325 326 324 325 328 323 321 325 326 327 326 326 326 325 324 325 327 326 326 328 326 325 322 318 319 320 320 322 323 322 323 324 325 328 330 333 334 333
314 313 312 312 312 311 313 315 315 315 315 314 314 313 311 312 312 313 312 314 317 314 313 313 311 314 316 315 315 313 312 314 316 317 315 314 316 315 314 315 315 316 316 317 321 324 322 320 323 325 324 324 322 324 329 327 324 326 325 326 328 327 326 325 324 325 327 325 325 330 328 320 317 317 319 320 319 321 322 322 323 324 329 334 334 335 335 334
314 314 313 311 312 311 312 314 314 316 315 312 312 312 312 314 313 313 312 312 317 316 311 311 313 316 316 314 315 313 313 315 316 316 315 315 315 314 315 315 316 319 319 321 323 321 317 314 318 322 321 321 320 320 325 328 326 325 326 327 327 325 326 326 325 324 326 326 324 330 328 316 314 319 322 320 321 323 322 320 322 322 327 336 339 337 333 331
314 314 313 311 312 311 312 314 313 315 315 311 312 312 313 316 314 311 312 312 316 318 312 311 314 315 314 314 315 313 314 316 315 315 316 316 316 316 316 316 319 323 322 323 323 320 319 318 320 320 317 318 320 321 322 323 324 326 326 325 325 326 327 327 325 325 326 326 325 328 327 317 315 320 322 322 322 322 321 319 320 322 324 330 339 336 327 326
315 315 314 312 312 311 312 314 313 314 313 311 314 315 313 315 314 313 313 312 315 317 315 314 315 314 314 314 315 313 315 317 316 316 317 318 317 316 317 317 319 322 322 322 322 323 323 323 322 320 318 318 322 325 322 320 323 327 326 325 324 324 327 328 329 330 329 325 324 327 326 320 317 319 322 322 321 321 321 322 322 323 325 328 337 335 326 324
316 316 315 313 313 312 312 313 313 312 312 313 316 316 314 313 312 314 314 311 315 319 317 316 316 315 314 315 315 315 316 318 317 316 318 319 318 317 317 318 317 319 321 321 322 323 323 324 324 320 318 319 322 324 323 321 323 325 326 328 326 322 322 324 326 329 328 324 323 325 326 326 320 320 323 320 320 323 322 325 328 328 329 328 335 337 329 324
317 316 316 314 313 313 313 312 313 312 311 315 317 316 316 314 311 313 313 313 318 321 319 317 316 315 314 316 316 315 316 319 317 317 320 319 319 319 317 318 317 317 319 318 321 323 321 324 324 320 320 321 321 322 322 323 322 321 322 324 326 323 319 319 321 324 327 326 323 321 325 328 321 318 324 321 320 323 323 326 330 331 333 331 334 338 334 328
318 317 316 315 314 314 313 313 313 312 312 316 315 314 315 313 312 312 312 315 320 321 319 318 317 315 316 319 319 315 318 321 318 318 321 319 318 319 318 317 316 317 318 317 320 322 318 321 324 321 320 319 321 323 322 321 320 320 321 322 326 325 317 319 323 322 324 325 324 324 326 326 319 317 323 324 322 324 323 324 326 328 331 329 329 334 338 335
317 316 316 316 315 314 314 313 312 311 314 315 313 313 313 311 312 312 313 318 321 320 319 319 318 316 317 321 322 318 319 323 321 320 322 320 318 319 319 318 316 317 318 316 320 324 320 323 325 323 321 318 321 325 323 322 321 321 325 325 327 327 320 320 324 322 321 321 321 322 321 319 317 317 320 319 320 322 322 323 324 326 327 327 327 330 334 334
316 316 316 316 315 314 314 314 313 312 315 316 312 312 312 311 312 313 317 320 319 319 319 320 320 318 318 321 322 320 320 322 322 320 322 321 320 320 319 319 318 317 318 315 317 324 324 323 322 321 322 319 319 322 322 325 324 325 328 325 323 326 324 321 323 323 322 321 320 320 317 315 316 318 321 320 319 321 322 323 324 325 325 326 328 330 330 329
315 316 316 316 316 315 314 314 313 312 315 317 314 312 312 312 312 314 319 320 318 318 318 319 320 319 320 320 319 320 319 320 321 320 321 320 320 321 319 319 320 318 318 316 316 321 321 321 321 319 319 319 317 319 321 323 323 324 325 323 322 326 327 323 322 322 321 320 320 320 317 315 317 318 319 321 323 321 321 322 323 323 324 324 327 330 330 329
315 316 317 316 315 315 314 314 313 313 314 316 315 314 312 312 313 314 318 319 318 318 316 319 321 319 320 319 318 319 317 318 320 319 320 319 318 321 319 319 322 320 317 316 317 320 319 318 321 318 316 319 319 320 323 323 321 321 322 323 323 324 326 325 322 321 322 320 319 320 317 315 318 321 319 320 323 321 319 321 322 322 323 325 327 330 335 336
314 316 318 316 315 316 314 313 313 312 313 315 315 314 313 313 313 314 317 319 318 317 316 318 320 318 320 320 319 319 317 318 320 318 318 318 318 320 320 318 322 322 318 317 318 320 318 316 321 319 316 320 322 320 321 321 321 320 320 323 324 323 323 326 325 322 322 323 322 321 319 316 318 323 323 321 322 321 321 322 324 325 325 327 331 336 340 339
314 317 318 315 315 315 314 314 314 312 312 314 314 314 314 316 316 314 317 320 318 317 317 318 319 318 320 321 319 319 317 318 320 319 318 318 317 319 320 318 321 322 320 319 318 318 317 315 320 322 319 321 322 321 320 321 321 319 318 319 321 322 322 323 324 323 323 325 324 321 319 317 318 321 322 322 323 323 324 323 327 330 328 329 335 338 339 337
314 317 317 315 314 314 314 314 311 309 311 312 314 314 314 317 319 315 316 319 320 319 319 318 318 318 319 320 319 319 318 318 320 319 318 318 317 319 320 319 320 320 319 320 317 317 321 319 320 323 322 321 321 321 322 323 324 322 320 319 319 320 321 322 324 325 327 325 322 322 320 318 320 325 326 329 329 328 330 327 328 332 331 335 339 336 333 334
314 316 315 314 314 314 315 313 308 307 310 310 312 314 313 315 318 318 317 318 318 319 319 317 317 318 319 320 320 319 318 318 319 319 318 318 317 318 321 320 321 320 318 319 318 317 320 321 320 320 321 322 321 319 319 320 320 323 324 324 323 321 320 321 324 327 329 327 324 325 322 318 325 333 330 333 333 329 331 330 328 330 330 333 337 334 332 332
313 315 315 314 314 314 315 314 309 308 309 309 310 312 312 313 315 317 319 318 317 318 318 317 316 316 317 320 321 320 318 318 320 320 319 319 320 322 323 322 322 319 317 320 319 317 318 321 322 320 320 324 324 322 321 320 320 322 324 325 325 324 322 322 324 324 325 325 325 325 322 318 326 331 326 328 328 323 325 328 328 329 328 330 334 334 333 332
313 314 314 314 313 314 315 313 310 310 310 309 310 311 311 312 312 314 317 317 317 317 316 317 316 315 318 321 320 320 319 317 319 321 320 320 324 325 324 323 321 318 320 323 318 316 320 320 319 320 320 321 322 325 326 324 321 321 323 324 324 325 325 323 324 324 323 322 323 323 321 318 322 325 323 323 324 322 324 323 322 325 328 331 335 337 335 334
312 313 313 313 313 314 315 313 311 310 309 310 311 311 311 312 312 313 314 315 316 317 317 320 319 317 320 322 321 322 322 317 318 322 321 321 325 324 324 326 322 319 326 328 320 319 324 321 316 318 319 316 318 326 328 324 322 322 322 322 322 323 325 323 324 324 322 320 321 321 320 318 318 320 321 321 321 323 325 323 322 325 327 330 332 335 337 337
310 312 312 312 312 313 315 315 313 311 310 310 311 311 311 311 312 313 314 314 315 316 317 321 321 318 318 320 319 321 322 320 318 320 321 323 325 322 321 324 325 324 326 323 320 324 327 322 318 318 318 315 317 326 327 321 320 321 320 320 321 322 324 325 324 323 320 321 321 319 319 321 318 316 318 321 321 322 325 325 325 326 326 328 330 332 334 335
309 311 312 313 314 313 314 315 314 311 310 310 311 312 312 312 312 313 314 314 314 316 317 319 320 319 319 319 317 318 320 321 320 318 319 324 324 320 317 319 320 321 322 320 321 324 323 321 321 320 319 318 317 322 325 322 321 320 319 320 320 321 323 323 323 321 321 322 321 319 320 322 319 316 318 321 321 321 322 322 323 323 322 323 326 328 329 330
309 309 309 311 313 314 314 315 314 312 311 310 311 312 312 312 312 312 314 314 314 315 316 317 317 317 319 320 318 317 318 319 320 318 319 323 324 321 319 319 318 318 320 321 321 322 321 320 319 319 320 320 319 320 323 323 322 322 321 321 320 320 321 321 321 320 321 321 320 320 321 320 318 317 317 318 319 319 318 319 319 319 319 320 321 323 324 325
308 308 308 310 312 312 313 314 314 314 312 310 311 311 311 312 312 312 314 315 314 315 315 316 316 315 316 318 319 318 318 319 319 319 321 324 323 320 319 320 320 318 318 319 319 319 319 319 321 320 320 320 320 320 322 323 323 323 324 324 322 321 320 320 320 320 320 321 320 320 321 319 317 317 317 317 318 318 319 318 317 317 318 318 319 319 321 322
306 305 307 309 311 311 312 313 314 314 312 311 311 311 311 312 313 313 314 314 314 314 315 315 315 315 316 316 317 318 319 319 320 321 322 322 320 319 320 320 320 319 317 318 319 319 318 320 323 322 320 320 319 319 321 321 321 322 323 324 322 321 321 321 321 321 320 320 320 321 321 319 317 317 318 318 318 318 319 317 317 318 318 318 318 318 319 320
305 305 305 307 310 311 311 313 313 314 313 311 310 311 312 311 312 314 315 315 315 315 314 314 314 316 317 316 316 316 316 317 319 320 321 321 320 320 322 320 318 318 317 317 319 320 319 320 322 322 320 319 319 320 322 322 322 321 321 320 319 319 320 321 322 322 321 321 321 321 320 318 317 317 318 318 317 318 318 317 317 317 317 319 319 319 319 320
Wind_Speed
9 9 9 9 8 7 6 5 5 4 4 5 7 9 9 9 9 9 9 8 8 8 7 6 5 4 4 4 4 3 4 4 4 6 5 2 2 4 4 4 3 3 4 4 4 3 5 6 4 4 4 3 0 1 1 1 1 1 0 1 4 3 1 1 2 4 5 7 5 7 7 5 6 4 2 2 1 1 3 3 4 6 7 9 12 14 15 15
9 10 9 9 8 7 6 5 5 4 4 5 7 9 9 9 9 9 9 9 9 9 8 7 5 5 4 4 4 3 4 5 6 6 4 4 4 4 3 3 2 3 4 4 5 6 6 3 5 5 4 2 0 0 1 0 1 1 1 3 3 1 2 4 6 5 3 7 7 6 7 4 6 7 4 2 5 5 4 3 5 6 6 9 12 14 14 14
10 10 10 9 9 8 6 6 5 4 5 6 7 8 9 9 9 9 9 9 9 9 8 7 6 5 5 4 3 3 3 4 5 3 5 6 5 3 3 2 2 3 4 4 4 5 6 6 3 6 3 2 1 1 1 1 1 0 0 1 1 2 4 7 8 6 5 4 8 6 4 2 4 5 4 3 5 7 7 5 7 7 6 8 10 13 15 14
11 10 10 10 9 8 6 6 5 5 5 6 7 8 9 9 9 9 9 10 10 9 8 7 6 5 5 4 3 3 1 2 2 3 7 7 5 3 2 1 1 2 3 3 3 4 6 8 4 5 3 2 2 1 2 1 1 0 1 0 2 3 4 6 7 6 6 3 5 6 3 2 3 3 3 4 4 4 6 6 7 8 10 11 10 13 16 15
11 10 10 10 9 8 7 6 6 5 5 6 7 8 8 9 9 9 10 10 10 9 8 7 6 5 4 3 3 2 1 1 1 4 8 7 4 3 1 1 1 2 2 1 3 4 5 7 4 3 3 2 4 2 3 3 1 0 2 3 4 5 3 4 5 5 6 3 5 7 3 2 4 2 3 5 4 3 1 2 3 2 7 13 12 13 14 13
11 11 10 9 9 8 7 6 6 6 6 6 7 8 8 8 9 9 10 10 10 10 9 8 7 5 4 2 3 2 1 1 1 3 7 6 4 3 1 1 1 1 2 1 4 4 4 6 4 3 3 2 5 4 3 3 2 1 2 4 5 5 4 3 3 4 6 3 5 3 1 3 4 2 4 6 6 3 4 6 7 7 9 16 15 13 12 10
13 11 11 10 9 8 7 7 6 6 6 6 7 8 9 9 9 10 10 10 10 10 9 8 7 5 3 2 2 2 3 0 2 5 8 6 4 3 2 2 2 2 1 3 5 4 4 5 4 3 3 2 5 4 1 3 3 0 2 4 4 5 6 4 3 2 5 5 3 2 2 2 3 2 1 5 8 4 5 8 8 8 12 16 13 11 11 11
16 13 11 11 10 8 7 7 6 6 6 6 7 8 9 9 10 10 10 11 10 10 9 8 7 5 4 3 1 2 3 1 3 7 7 5 3 3 3 4 3 3 2 4 4 2 3 4 4 4 1 1 3 4 1 2 2 1 3 4 2 4 5 5 4 2 3 4 2 3 1 2 2 1 2 5 8 6 4 8 8 8 10 10 10 10 9 10
17 15 13 13 11 8 8 8 7 7 6 6 7 8 9 10 10 10 10 10 10 10 9 8 7 5 5 4 2 2 2 4 6 7 7 4 3 4 4 3 2 2 3 1 4 4 2 2 2 1 2 2 2 3 1 1 1 1 4 5 4 5 5 4 5 3 2 1 1 1 3 3 3 4 4 8 9 8 5 7 7 7 7 7 8 9 9 9
17 17 16 15 13 9 9 11 8 7 7 7 7 8 9 10 10 9 10 10 10 10 10 9 6 5 4 3 2 2 1 6 8 7 6 4 3 4 4 2 2 3 2 2 5 5 3 3 4 4 3 2 2 2 2 1 1 1 4 5 5 6 4 2 3 4 2 2 2 2 3 1 3 1 4 5 5 7 7 6 7 7 6 7 6 8 9 10
17 17 17 16 14 11 9 10 9 7 8 7 6 7 8 9 9 9 10 11 10 10 10 8 7 5 3 2 3 2 2 5 7 8 6 3 2 3 3 2 3 5 4 4 6 5 4 5 6 3 2 1 3 3 3 0 2 1 4 6 5 5 5 3 3 5 3 2 3 2 3 2 3 2 7 4 1 3 7 6 6 6 5 7 7 7 8 10
18 18 17 15 15 13 10 9 9 8 9 7 6 6 7 9 9 9 10 10 11 11 10 8 7 5 2 2 3 1 4 5 8 9 6 3 4 4 4 3 4 4 5 3 5 4 4 5 6 2 2 2 3 4 1 2 2 2 2 2 5 5 4 6 5 5 4 1 2 1 3 6 5 8 12 6 5 4 6 6 6 6 5 6 7 7 7 8
19 18 16 15 15 13 11 10 9 9 8 7 5 6 7 8 8 9 10 10 10 10 9 7 6 4 1 1 1 3 5 7 9 8 7 5 5 5 5 5 5 4 4 4 5 3 5 5 5 2 1 3 2 1 1 2 0 1 3 1 4 3 3 7 5 4 3 2 2 3 1 6 7 13 10 6 8 6 5 6 6 6 6 6 6 6 6 8
18 17 16 16 15 12 10 10 9 8 7 6 6 6 6 7 8 9 9 9 9 8 6 5 4 3 1 0 2 2 4 9 9 7 8 7 5 6 6 6 6 5 4 6 6 5 5 5 3 3 2 3 3 1 1 2 1 1 2 0 2 2 1 4 4 5 3 1 3 4 1 7 6 5 4 6 7 7 6 6 6 6 6 6 6 7 6 8
17 17 16 16 14 12 10 10 9 7 7 6 7 7 6 6 7 8 8 8 6 5 4 3 4 3 0 0 2 3 6 9 7 6 9 8 5 4 5 5 7 7 6 8 8 7 5 4 2 3 2 2 2 2 3 3 2 1 2 2 3 2 1 1 2 4 3 1 3 4 2 6 4 1 5 4 5 5 6 6 6 7 7 7 7 7 7 7
16 16 16 16 15 13 11 10 9 8 7 6 6 5 5 6 6 7 7 6 5 5 4 2 5 3 1 1 3 4 5 5 5 7 10 9 5 5 6 6 6 5 5 6 6 5 4 4 2 1 1 0 1 3 3 2 2 2 2 2 2 3 3 2 1 2 2 0 4 4 3 4 2 2 4 4 5 6 6 6 7 7 7 8 7 7 7 7
15 16 16 16 15 13 11 10 9 8 7 6 5 5 6 6 7 7 6 6 5 5 3 1 3 4 1 1 3 3 4 5 6 8 9 8 6 7 8 4 4 4 3 3 2 2 2 2 2 0 1 1 3 3 2 2 3 3 4 3 1 2 2 2 1 2 1 0 2 5 5 5 5 5 4 5 6 7 7 7 8 7 7 7 7 8 8 8
14 16 16 15 14 12 11 10 9 8 7 6 6 8 9 9 9 8 7 8 7 5 0 3 1 3 1 2 3 3 7 9 8 8 9 8 7 7 4 2 4 4 4 2 0 0 1 2 1 0 2 2 4 3 4 3 2 2 4 3 2 2 4 3 1 3 4 1 3 5 6 8 9 9 8 7 8 8 8 8 8 8 9 8 8 8 8 9
15 16 13 12 13 13 11 11 9 8 7 7 9 12 12 10 7 6 5 7 5 3 1 2 4 2 1 4 5 6 9 11 9 7 8 7 6 6 2 3 4 2 2 2 1 1 1 2 1 0 3 4 4 4 4 1 3 2 2 1 2 1 2 1 3 2 3 2 4 6 7 9 9 9 9 8 8 9 9 9 8 8 8 8 8 7 7 9
16 15 12 11 13 14 11 11 10 8 8 9 11 10 7 6 3 2 4 5 4 1 2 3 5 2 3 5 6 9 11 8 5 3 6 8 6 5 4 3 2 1 3 3 2 1 1 2 2 3 4 4 6 7 3 4 5 3 3 2 3 3 2 1 4 1 0 0 5 7 8 10 11 10 9 8 8 9 10 10 9 8 8 9 8 8 8 9
15 15 13 12 14 14 12 11 9 9 11 9 7 3 3 6 3 3 5 3 6 0 5 2 2 3 5 8 11 10 7 3 1 3 7 8 5 4 4 4 3 2 3 3 4 1 2 1 5 6 3 2 1 3 4 5 4 3 3 2 3 2 4 1 4 3 1 2 5 7 8 10 12 11 9 8 9 10 11 11 10 10 10 8 8 9 9 8
13 14 12 12 15 15 12 11 10 11 11 8 7 6 2 2 2 5 6 2 6 3 3 1 2 4 6 9 10 6 1 2 3 4 7 7 4 3 4 4 4 4 3 5 4 2 2 3 5 3 3 6 6 5 6 4 4 3 1 1 2 2 3 2 4 4 3 2 4 7 7 9 12 12 12 12 11 10 11 10 10 10 10 10 8 8 9 8
12 13 13 11 15 15 12 12 10 10 11 8 8 6 3 2 3 7 6 1 3 3 2 2 2 5 5 3 6 5 2 5 5 4 8 8 4 2 4 5 5 4 5 5 4 3 3 4 3 3 5 5 5 4 5 3 2 2 2 0 2 1 1 1 0 2 4 4 3 5 7 9 11 12 14 15 13 10 8 9 9 10 11 12 9 7 8 8
12 13 13 12 13 14 13 11 9 10 11 10 11 8 4 3 4 8 4 0 3 1 0 1 1 3 5 2 6 7 2 2 4 6 12 10 4 2 3 6 6 4 4 6 6 5 3 1 1 4 4 3 5 3 4 3 2 4 4 3 4 2 1 1 2 3 3 2 1 4 7 8 8 9 11 11 9 9 8 8 10 11 11 10 8 8 7 8
14 13 13 13 12 13 13 10 8 10 9 9 13 12 7 3 3 6 3 1 3 1 2 1 0 3 6 6 6 5 0 1 2 6 15 10 3 3 2 3 4 4 6 7 7 5 2 0 0 5 4 2 5 3 4 5 2 3 4 4 4 3 4 4 5 6 5 3 1 2 4 6 2 5 8 5 4 7 7 8 10 11 10 8 8 9 8 8
15 13 14 14 13 14 13 6 9 10 7 7 10 11 9 4 3 5 3 1 3 2 2 4 3 6 9 6 5 2 2 1 3 5 13 6 1 2 1 1 1 2 6 5 3 2 2 1 1 6 6 4 4 2 4 5 2 3 3 2 2 3 5 4 6 4 2 4 4 2 1 6 3 2 8 5 6 7 6 8 11 10 8 7 7 8 7 7
16 15 16 16 15 18 10 3 10 12 5 6 10 11 10 5 3 3 2 1 3 4 5 2 1 7 10 8 8 4 1 4 3 3 5 2 1 2 1 4 3 1 3 2 1 0 3 3 2 5 5 5 4 2 4 7 3 2 4 4 4 5 3 2 4 1 2 5 6 4 5 5 7 5 10 9 8 7 7 9 10 9 8 8 8 8 8 7
18 16 16 17 19 18 7 5 13 11 3 5 11 13 10 6 4 3 2 1 2 4 4 2 2 5 7 7 9 4 2 5 4 1 2 2 1 2 1 4 5 5 2 3 3 2 2 5 4 5 4 3 4 1 2 7 4 1 3 2 4 5 3 2 2 2 2 5 5 3 7 2 8 5 8 10 8 8 9 10 9 9 8 7 6 7 6 4
20 18 17 18 19 16 4 1 8 8 5 5 10 13 8 5 3 2 1 3 3 3 2 3 4 4 6 6 7 5 3 2 1 1 2 2 1 1 1 2 3 7 6 3 3 2 2 3 2 4 4 3 3 3 3 3 4 3 3 3 5 4 3 3 1 2 3 4 4 5 6 2 8 7 4 7 7 7 9 8 7 8 6 5 6 7 6 5
21 21 20 18 19 18 10 6 7 8 7 6 10 12 8 3 2 3 4 4 2 2 2 2 3 6 10 8 6 6 5 2 2 3 2 2 1 2 0 0 2 3 3 2 3 2 1 1 1 1 2 3 5 4 5 4 5 4 4 4 4 2 3 3 1 2 3 5 4 8 9 4 4 5 2 5 6 7 7 6 6 5 3 5 6 7 7 6
23 22 23 22 20 19 11 5 9 12 9 7 11 12 7 1 1 5 6 1 0 2 2 1 4 10 14 12 7 6 5 4 4 7 4 2 1 1 1 1 2 3 2 2 2 2 1 1 0 1 1 3 5 4 5 4 3 3 3 3 2 2 3 3 2 3 1 6 3 6 10 7 5 5 1 3 6 6 5 5 4 2 0 1 5 6 6 6
25 24 26 25 20 18 12 2 5 12 10 10 12 7 4 2 2 5 4 2 1 4 5 6 8 10 13 11 8 8 8 5 6 8 6 5 4 4 6 5 4 3 0 3 2 1 1 2 3 2 3 2 4 4 4 5 2 1 3 5 3 0 2 1 1 1 3 5 4 0 4 5 7 5 3 5 4 4 2 1 1 1 3 3 4 6 5 6
27 27 28 27 22 18 15 5 2 8 12 11 9 3 2 4 5 7 6 3 2 3 6 9 10 11 12 9 7 8 7 5 7 7 5 6 5 6 7 7 8 5 2 5 4 2 0 1 3 4 3 3 5 4 3 1 2 5 5 6 5 3 2 3 3 2 4 4 3 3 2 3 5 2 7 11 9 6 4 3 5 4 5 7 3 7 6 6
28 28 29 29 26 20 17 13 5 8 14 10 5 4 5 6 6 9 11 6 2 1 4 9 11 12 12 8 7 9 5 4 9 7 5 6 5 6 7 7 9 5 2 4 4 5 4 4 4 7 3 6 8 6 6 6 5 6 5 4 5 4 4 4 3 3 4 3 2 1 0 3 2 2 6 8 8 8 7 7 8 6 7 8 3 7 7 6
30 32 31 29 28 24 20 18 10 10 14 8 4 6 8 7 6 9 11 5 3 2 4 8 10 11 9 4 5 8 3 2 9 8 6 8 6 7 7 7 11 8 3 4 3 4 6 5 3 4 3 10 10 4 3 6 3 4 3 2 5 4 3 2 1 3 2 2 3 2 4 5 4 5 6 3 4 8 9 8 7 6 8 8 4 4 6 6
29 33 30 28 30 28 25 20 14 13 11 5 5 8 8 8 8 8 6 4 4 6 8 8 6 7 7 3 2 5 0 1 8 6 4 6 6 7 8 7 11 11 8 7 2 3 5 3 2 2 2 5 5 2 1 3 2 3 3 4 4 1 3 3 1 2 4 2 4 3 6 6 3 7 9 9 9 8 7 7 8 9 10 9 7 5 5 5
25 26 21 24 30 31 28 22 16 14 7 3 8 9 7 9 10 6 4 6 8 10 9 6 4 5 7 4 3 5 2 2 6 5 4 5 4 7 10 7 9 14 12 8 3 2 5 1 3 1 1 1 2 2 1 2 3 4 4 4 1 4 3 3 0 2 1 5 4 3 8 8 4 6 5 6 9 8 8 9 9 9 9 8 8 7 6 5
17 16 12 19 29 30 30 25 19 12 3 2 9 11 9 11 11 6 5 8 11 11 7 5 5 5 6 6 5 7 7 5 6 5 5 5 4 8 12 7 8 14 15 10 4 1 3 2 3 2 1 2 3 1 1 3 3 4 2 1 2 1 1 3 3 2 3 4 5 5 8 7 6 6 3 4 9 9 10 10 9 8 7 7 8 7 6 4
8 7 4 14 25 28 31 29 18 7 2 6 11 11 10 12 12 8 6 9 9 9 8 6 5 5 6 7 7 8 8 7 8 7 5 5 4 6 12 9 7 12 14 11 6 1 2 3 3 3 3 1 2 1 4 1 2 2 2 3 2 2 3 4 3 3 3 4 5 5 6 5 5 6 6 9 10 10 10 9 7 7 8 8 8 7 6 5
4 2 2 14 25 28 32 27 15 6 4 8 10 9 8 8 8 9 8 9 8 6 7 7 7 6 7 7 7 7 8 7 8 7 5 7 5 5 9 10 6 8 11 11 7 2 3 2 3 2 5 1 2 4 8 7 5 3 1 2 2 2 1 0 1 2 3 3 3 4 7 7 3 3 6 9 9 11 10 8 8 8 8 8 7 6 6 6
3 3 3 18 27 29 27 15 6 6 7 8 11 10 7 2 3 10 9 9 8 4 2 6 9 8 7 8 7 7 7 6 7 7 4 7 7 4 6 10 8 8 8 8 7 5 3 3 4 2 1 3 4 4 6 7 7 7 6 7 7 5 3 1 3 4 2 2 3 2 7 9 3 1 1 4 7 8 6 5 6 7 7 7 6 6 6 6
2 3 5 22 31 28 19 5 1 3 5 8 9 6 3 2 2 9 9 5 5 3 1 4 9 8 8 9 8 8 8 6 7 7 5 8 10 6 6 10 11 12 10 7 8 6 4 3 3 3 4 5 2 1 2 2 2 2 3 5 6 5 5 4 5 4 2 3 4 1 6 10 3 1 3 5 5 4 5 4 2 4 7 7 6 7 7 6
3 2 5 24 37 29 12 3 2 2 3 3 3 2 0 2 3 4 7 6 5 4 3 5 7 8 7 8 8 9 9 6 8 10 7 8 10 7 8 11 11 12 9 4 4 3 3 3 3 2 2 1 2 2 3 4 3 0 2 1 3 5 6 5 4 3 2 4 5 2 7 9 4 3 3 4 3 2 3 4 3 2 5 5 5 6 6 6
3 2 1 18 35 27 10 4 4 4 5 1 3 5 3 3 2 3 3 6 6 5 5 6 7 7 6 7 8 10 12 8 8 11 8 7 6 4 7 13 12 10 8 5 6 6 3 3 4 3 2 1 1 1 2 3 1 1 3 3 5 7 8 5 2 1 2 9 9 5 8 9 3 4 4 4 3 2 4 5 2 4 5 3 4 6 6 6
2 2 1 9 19 16 7 5 6 5 6 5 5 9 7 3 2 3 3 3 3 3 4 5 7 7 4 4 6 9 13 11 7 8 8 7 3 3 4 13 14 10 6 5 8 8 5 5 6 5 5 6 5 4 4 2 1 2 5 7 9 9 10 7 3 3 7 12 10 6 9 11 4 3 5 5 2 1 6 6 4 3 2 3 5 6 6 5
2 3 1 3 6 6 5 5 6 5 6 6 5 7 11 8 4 4 3 3 3 1 1 2 4 8 4 4 5 6 10 12 9 6 7 7 3 3 2 6 11 9 5 6 9 7 4 4 8 10 10 11 9 5 6 8 7 6 10 12 13 12 12 9 5 7 11 9 7 9 12 15 14 5 0 3 2 3 6 4 4 5 5 6 7 6 5 4
2 3 4 3 2 4 5 5 7 6 7 9 6 5 12 14 9 6 4 3 3 0 1 3 1 8 9 9 9 7 7 11 10 8 8 6 2 2 3 2 2 5 5 5 6 5 4 4 10 13 14 15 12 6 8 11 11 13 14 14 14 14 13 11 11 14 12 6 9 13 10 13 20 12 6 7 7 6 7 6 6 7 7 7 7 7 7 6
3 2 2 2 1 3 4 5 9 9 8 10 6 4 10 13 12 9 7 6 4 0 1 2 3 7 10 12 12 9 7 9 9 9 9 5 4 3 2 4 2 1 2 3 2 3 4 5 8 12 14 16 14 9 9 11 10 11 13 13 14 15 15 16 19 19 12 7 11 15 10 12 20 15 7 7 9 8 7 7 7 7 6 7 7 8 9 8
3 2 1 1 1 2 2 3 10 12 10 10 7 5 9 13 14 12 7 6 6 5 4 5 7 6 6 7 10 10 10 10 10 10 7 5 5 5 3 0 1 1 1 3 2 1 3 5 8 10 11 14 16 12 9 9 7 7 10 12 15 17 20 20 20 18 14 12 15 17 16 16 19 18 11 7 9 10 8 8 10 10 10 9 9 10 9 8
2 2 1 1 2 2 0 1 6 9 10 11 8 6 8 12 14 14 9 8 9 9 8 10 12 9 6 6 7 9 9 8 9 10 7 7 6 5 4 4 3 1 1 3 2 1 2 5 6 6 6 10 14 12 8 6 4 3 5 8 12 17 20 19 16 13 12 14 17 18 19 18 17 16 12 10 9 9 10 12 12 11 12 11 11 11 9 9
4 2 1 1 2 4 3 2 4 6 6 8 8 7 9 13 14 12 10 10 12 10 11 16 17 11 8 7 6 9 7 2 2 2 3 6 6 3 2 3 5 5 4 4 2 2 3 3 0 3 4 10 11 9 5 3 2 3 8 12 16 15 11 10 10 11 13 13 13 12 13 15 15 10 8 12 11 8 12 15 13 11 12 11 12 12 11 10
8 3 1 1 2 4 4 3 5 5 3 5 8 7 8 11 11 10 7 6 10 11 11 17 18 10 8 11 12 12 7 5 6 3 4 5 4 4 3 1 4 6 7 5 2 2 5 4 1 4 6 11 10 5 6 6 2 6 14 18 18 14 8 7 8 11 13 11 9 9 11 14 15 11 9 13 13 11 13 14 13 12 10 9 11 12 11 9
Wind_Direction
206 187 189 188 187 196 196 201 202 202 202 193 186 183 187 187 188 189 188 191 193 196 199 203 208 219 227 237 241 234 236 212 211 227 219 227 167 160 178 187 205 194 198 189 198 242 243 232 209 191 180 179 352 114 223 351 33 342 144 220 251 229 150 219 99 111 138 132 149 162 173 165 144 163 127 139 271 116 146 153 111 78 78 100 120 131 133 143
206 192 193 189 190 199 199 205 205 207 211 201 193 189 190 189 190 191 188 192 194 198 202 206 214 220 229 237 237 243 236 211 229 238 191 177 165 158 176 181 192 182 188 187 218 243 248 226 166 191 210 173 168 175 227 80 101 275 218 227 264 48 29 3 59 67 81 132 151 161 189 191 144 156 139 160 196 178 180 192 161 126 104 117 131 139 144 150
213 198 195 189 194 200 203 211 208 214 214 204 199 193 193 191 191 192 191 194 196 201 204 211 218 222 233 235 235 240 230 227 249 226 151 159 160 165 174 170 174 167 188 204 259 275 295 305 184 191 222 185 204 121 149 113 130 205 250 242 314 71 56 29 56 57 25 100 145 152 185 185 124 139 143 202 210 184 190 200 179 174 172 158 152 150 153 158
220 204 199 193 196 204 210 215 213 223 217 208 205 197 195 193 194 194 193 196 200 205 207 213 217 227 233 232 235 225 219 257 262 142 151 161 158 165 158 165 168 163 196 210 277 289 297 294 232 198 241 189 133 113 158 150 144 145 89 79 337 4 60 44 44 43 13 29 132 128 129 157 115 107 154 201 224 207 206 202 185 194 187 166 160 158 161 165
221 210 203 200 202 209 216 218 220 226 220 218 214 204 198 197 197 194 194 197 201 206 210 214 218 230 229 235 232 186 154 238 94 119 151 157 151 150 142 162 160 176 186 170 281 271 264 264 232 215 262 165 135 159 161 138 126 64 91 84 10 357 64 69 43 21 351 2 102 116 139 149 104 97 195 213 226 212 198 127 117 137 160 154 156 157 163 172
218 211 204 206 209 213 219 223 229 226 220 223 220 210 201 200 199 196 197 197 201 207 211 215 218 226 226 237 215 174 220 202 104 137 151 148 138 131 114 114 109 156 160 190 267 250 245 249 216 206 246 174 163 168 136 123 99 26 98 80 27 22 78 82 56 359 339 32 96 118 148 101 102 194 211 221 233 179 108 90 77 62 110 139 149 154 165 179
218 215 208 209 212 218 223 228 232 224 222 225 220 212 202 200 200 198 198 198 203 207 209 214 216 222 220 209 177 185 236 265 107 157 150 136 123 116 87 70 82 108 124 273 253 216 220 229 207 226 242 179 163 148 124 142 131 215 129 94 46 58 80 75 80 3 0 41 62 11 8 92 170 223 198 223 239 216 119 104 101 94 113 134 145 160 174 182
220 217 210 213 216 221 228 233 239 234 232 231 221 213 205 202 202 200 200 200 204 207 210 213 212 216 202 185 176 212 221 137 134 157 148 127 109 105 80 52 52 61 357 295 281 260 244 226 222 243 235 78 118 121 159 164 149 271 109 111 100 84 89 97 106 101 55 46 14 23 335 240 177 57 350 248 246 239 153 117 118 113 122 144 155 169 179 183
220 216 212 218 219 221 230 231 236 242 242 237 226 215 209 207 207 204 201 201 204 207 210 209 211 213 197 194 228 257 209 141 149 158 149 125 99 91 69 47 44 1 302 302 329 316 302 255 259 324 70 35 81 109 26 94 85 359 110 123 120 106 101 118 123 118 118 105 54 70 232 239 54 40 264 243 239 233 186 132 132 130 142 169 169 175 181 184
220 220 221 226 225 226 232 226 225 243 249 243 232 220 214 214 212 207 203 202 204 206 208 208 207 200 194 207 227 249 148 134 146 157 154 133 97 79 60 63 81 354 316 74 24 346 350 347 338 4 40 40 66 63 23 63 293 355 110 104 103 119 122 174 146 133 159 123 142 234 252 198 81 48 250 247 243 212 178 149 144 148 168 186 184 184 186 188
220 224 229 236 240 238 236 228 226 246 251 243 235 225 219 218 215 210 205 202 203 204 206 205 199 193 194 226 239 231 158 148 152 155 156 137 97 91 79 76 72 28 3 70 57 24 25 3 344 348 16 63 97 64 44 212 266 98 116 101 111 133 127 183 169 151 177 119 178 254 317 275 121 195 237 217 224 168 167 172 163 169 195 200 197 193 191 194
220 225 231 239 249 247 240 232 233 252 250 235 231 229 222 219 216 212 206 202 202 203 203 200 197 191 182 250 258 178 151 161 156 152 152 123 95 99 90 66 70 38 2 69 86 41 59 23 347 6 4 339 112 94 83 234 264 112 166 136 146 161 153 190 177 151 179 153 177 88 337 266 196 227 242 187 146 148 169 191 178 183 207 211 206 194 194 200
220 224 231 242 253 249 237 231 238 249 238 224 229 233 226 219 216 211 206 203 203 202 201 200 193 181 181 259 187 126 142 156 150 141 135 111 88 89 87 72 71 51 26 89 103 63 78 38 359 70 44 354 97 141 206 202 340 139 216 224 153 189 196 190 163 128 150 133 148 105 338 270 223 227 235 149 145 153 173 205 198 195 203 207 205 193 196 199
219 223 233 245 250 241 231 229 236 237 223 224 231 229 224 214 212 208 203 202 202 200 197 193 179 163 186 144 109 113 145 144 136 136 137 114 90 90 84 79 77 71 78 97 96 84 83 51 34 100 54 23 99 181 189 140 221 164 154 234 199 221 193 165 133 135 160 201 164 125 220 276 279 227 176 136 155 158 187 214 213 212 203 199 199 197 202 200
216 224 236 243 240 234 229 225 229 228 221 226 227 225 214 199 202 201 198 197 193 189 186 187 172 152 213 209 110 120 137 136 132 155 149 126 123 117 93 90 86 78 86 99 93 76 63 42 60 106 53 7 106 147 156 155 216 184 133 248 218 204 211 137 122 158 164 279 182 147 223 261 284 129 122 134 155 166 207 224 223 222 206 196 196 198 208 209
215 226 237 238 231 230 227 221 224 224 222 223 222 211 184 178 181 181 182 180 176 169 156 174 184 189 286 159 123 131 147 148 158 170 156 140 142 130 120 110 90 79 81 92 90 68 49 44 42 64 77 276 198 186 174 156 217 196 181 240 197 180 193 166 301 255 157 80 190 193 253 277 287 179 166 173 177 180 206 229 230 229 216 202 197 198 206 210
218 226 231 230 227 224 219 219 219 217 218 214 196 156 143 147 150 154 156 153 147 148 145 340 179 177 315 105 127 161 163 148 157 169 161 147 132 132 142 136 106 117 113 94 85 53 27 46 49 325 88 214 226 201 154 176 238 206 185 245 236 174 194 181 316 291 189 281 235 215 232 255 267 253 222 205 197 189 202 223 228 232 234 222 209 202 201 204
219 217 216 223 226 216 212 213 209 216 218 198 164 130 122 122 126 127 131 136 115 102 109 324 182 175 249 174 140 116 129 137 148 161 162 149 134 145 163 166 154 160 154 145 249 347 37 48 45 169 152 225 239 182 160 200 236 192 174 211 248 215 231 233 186 186 175 169 265 241 240 248 256 259 250 231 213 210 220 227 229 234 236 235 226 213 202 203
212 203 206 221 218 208 209 203 199 214 204 165 136 118 106 102 108 117 139 150 133 104 209 203 177 171 129 145 117 90 114 137 143 146 161 155 143 158 181 179 175 187 173 166 271 267 102 103 71 194 185 204 219 196 198 183 40 31 100 127 298 297 245 194 110 181 177 153 238 241 252 258 255 254 255 248 230 227 235 233 233 236 233 236 234 224 212 210
206 202 209 215 205 202 205 197 198 201 173 145 134 120 113 126 122 146 171 195 211 64 32 175 175 135 97 106 104 108 112 125 132 131 163 162 156 172 186 179 140 340 229 168 157 250 60 122 184 210 210 205 207 202 188 56 47 16 27 23 317 335 306 44 103 189 243 121 249 244 254 268 267 259 253 252 251 250 251 246 240 236 235 234 233 232 224 222
200 205 210 207 200 201 199 193 199 193 170 157 166 182 169 163 166 162 152 222 245 161 41 46 102 75 98 120 135 137 117 103 134 144 170 175 175 182 180 175 149 204 223 113 99 99 70 175 218 213 197 75 146 156 92 57 48 31 17 351 318 292 264 271 112 168 89 70 265 267 266 265 267 266 258 244 241 243 246 250 250 245 245 239 226 229 228 228
195 202 203 196 193 194 192 191 195 193 184 184 216 246 271 149 174 158 142 200 230 171 85 69 76 80 97 128 158 178 163 138 139 151 178 184 192 188 161 175 192 181 156 101 92 98 116 227 230 182 101 70 55 57 65 45 47 66 41 348 312 285 287 6 96 151 131 127 256 278 278 264 262 266 262 249 238 236 235 238 246 246 252 251 230 222 223 223
194 197 194 188 187 187 186 189 191 196 198 206 222 238 287 287 175 163 163 181 190 166 156 197 183 135 114 129 191 208 203 154 150 171 181 179 186 207 160 178 205 168 148 153 154 160 167 228 229 93 86 91 72 61 81 72 58 160 177 171 245 214 85 310 223 175 188 192 242 295 288 268 259 256 258 254 246 247 243 237 245 244 246 251 241 227 216 212
190 194 195 184 178 181 179 181 190 202 209 225 235 238 266 268 167 167 188 337 155 166 212 176 233 165 143 142 183 195 229 150 138 162 177 182 165 171 188 191 204 184 174 187 190 198 169 178 255 83 85 111 106 105 128 136 213 215 199 203 231 246 75 251 335 348 279 232 28 318 294 272 246 229 248 260 247 245 244 240 248 247 245 250 251 244 227 215
190 194 196 178 173 175 169 173 194 203 208 234 242 231 233 251 149 161 182 312 174 92 348 178 234 194 153 127 161 181 190 81 39 148 172 189 163 147 206 209 206 200 190 190 200 218 189 243 275 107 102 106 124 154 178 172 208 229 215 211 233 316 11 2 358 1 341 336 6 16 323 293 249 191 236 248 210 227 232 228 241 249 248 243 243 245 238 232
191 197 195 179 172 165 157 180 201 192 199 234 237 221 221 227 119 147 148 322 225 158 142 173 160 177 163 141 156 136 91 178 6 121 159 189 267 132 205 186 125 216 197 184 202 220 146 302 26 117 124 117 129 208 191 167 179 247 264 333 18 31 40 16 359 11 347 297 259 129 96 282 293 206 236 221 182 215 227 226 238 249 246 231 227 229 226 230
187 193 193 182 175 166 154 175 174 166 182 225 222 218 222 213 130 131 119 342 249 164 141 175 193 176 166 161 167 148 130 161 84 89 146 190 221 64 85 169 119 252 229 112 108 302 119 137 106 117 122 122 149 226 181 163 157 239 280 346 45 66 61 35 18 339 261 305 284 176 148 268 284 224 215 210 190 205 226 234 241 245 242 233 221 210 209 213
189 187 189 187 184 173 141 108 155 164 194 190 199 210 213 194 152 120 133 221 209 146 142 170 149 149 149 165 176 157 102 142 132 98 69 87 162 52 61 191 168 185 210 120 163 292 81 151 158 144 145 149 161 265 196 165 149 251 269 347 67 77 60 64 34 306 308 344 306 181 138 237 284 252 199 200 191 196 223 234 239 245 242 225 201 187 186 180
193 188 187 190 191 187 172 97 172 191 218 179 188 199 190 171 160 101 163 211 157 125 139 147 141 138 137 163 184 161 112 105 100 164 119 90 76 40 161 231 215 186 192 170 159 352 18 179 191 149 157 166 125 18 356 128 134 209 200 74 67 76 57 56 3 339 14 325 265 179 156 213 284 282 175 171 185 197 221 230 234 239 222 181 164 153 134 100
192 192 189 186 193 202 222 258 220 198 209 203 181 175 162 151 168 159 186 208 161 118 92 121 151 153 152 157 176 174 144 78 63 126 150 149 86 339 207 313 312 179 159 90 82 71 94 164 240 109 130 142 115 60 21 69 120 157 151 85 62 69 52 43 302 69 55 284 237 171 182 194 288 295 135 159 197 191 195 210 227 230 183 163 155 138 120 106
190 191 191 188 193 199 204 243 224 204 205 192 159 149 150 147 211 187 183 207 357 131 121 159 148 151 166 165 162 181 157 113 140 146 148 158 128 300 209 142 9 46 55 43 84 131 126 74 141 4 335 138 114 74 26 30 85 115 130 116 81 13 29 27 348 66 126 262 268 171 180 186 233 267 262 219 216 193 171 172 201 229 333 162 142 129 121 123
193 192 192 192 195 195 192 236 239 212 196 159 149 147 154 163 225 219 188 97 198 178 161 176 166 161 176 169 154 173 160 135 165 163 151 160 167 186 195 187 154 118 257 202 166 86 161 192 141 66 323 207 134 92 38 4 7 104 145 129 114 346 6 347 235 147 212 246 289 130 160 208 238 243 239 238 220 218 232 136 190 223 294 285 147 134 127 133
199 196 195 196 198 198 203 230 271 204 186 158 154 166 173 182 199 211 199 164 174 184 156 160 162 162 172 173 161 165 157 149 171 168 152 161 176 194 210 210 182 178 194 171 164 132 184 303 124 110 333 242 177 148 137 232 196 177 166 142 145 165 200 238 218 213 239 249 296 17 61 257 273 274 231 232 228 220 224 238 229 203 232 257 197 141 142 151
206 201 198 198 201 203 208 222 230 179 177 171 162 162 187 203 193 200 210 196 130 91 145 149 151 158 172 179 161 157 159 162 165 162 154 162 183 200 210 222 208 201 121 152 175 168 192 277 187 169 182 181 192 198 171 156 168 193 184 158 173 174 182 207 190 208 248 288 294 318 119 215 240 278 232 229 229 217 212 220 220 216 233 249 210 134 147 174
210 205 201 197 202 205 204 214 214 175 175 178 166 173 189 201 195 205 211 184 128 102 113 134 143 154 173 185 159 161 161 161 166 167 170 176 195 194 189 205 207 200 164 180 204 161 195 248 186 157 161 166 182 223 161 122 143 212 187 182 226 212 173 172 184 179 146 341 289 226 235 220 208 262 264 280 245 211 213 218 207 222 246 252 242 165 168 192
209 203 199 195 201 203 200 207 201 180 184 184 175 190 200 199 202 209 194 141 141 134 119 131 146 158 169 173 186 183 44 101 165 171 186 193 209 202 195 198 194 196 188 184 192 137 174 261 333 30 40 158 179 268 153 126 169 196 162 196 225 130 118 159 271 53 100 270 269 196 246 269 292 273 248 231 236 221 217 227 211 215 232 247 258 240 219 210
208 201 197 197 201 199 196 200 190 180 194 201 190 200 209 211 214 206 144 123 138 137 132 148 168 174 171 163 190 182 148 114 162 174 182 186 218 208 204 206 185 194 201 189 202 177 154 205 317 12 39 296 290 310 2 46 80 126 168 208 125 43 46 124 154 348 146 248 267 198 244 268 275 277 255 199 219 230 224 223 219 219 226 242 256 262 263 243
210 203 202 203 201 195 192 192 182 172 170 196 206 211 211 217 219 204 139 131 144 150 156 168 169 180 175 168 185 176 164 163 170 183 176 172 226 205 194 203 188 194 203 193 207 259 147 178 308 347 321 303 335 327 258 10 56 117 172 248 104 104 259 144 158 240 213 237 268 254 264 267 231 244 273 204 204 215 224 222 221 224 222 234 244 245 252 240
210 200 219 200 196 194 188 181 167 147 147 191 206 212 211 216 217 209 163 141 152 166 177 172 155 186 194 174 170 169 175 179 169 179 185 178 221 202 183 191 194 193 196 191 199 219 121 186 243 319 321 344 31 195 193 177 26 43 358 340 94 136 185 174 176 192 182 214 257 277 287 275 227 208 214 218 203 197 216 221 212 217 219 223 229 220 207 194
199 208 229 182 187 190 182 171 155 139 174 199 212 215 215 219 214 214 191 162 169 186 190 184 158 172 199 180 161 165 184 189 172 182 201 180 198 220 185 180 181 178 177 184 194 131 101 197 208 310 331 349 172 212 194 179 178 192 226 228 193 137 119 152 245 197 168 196 239 279 280 267 246 191 201 206 190 188 204 206 199 214 222 213 203 190 177 174
199 263 192 168 176 177 172 168 159 159 173 203 223 223 224 256 215 218 213 182 188 207 195 195 180 172 182 179 170 166 174 187 180 187 208 189 197 230 188 170 163 155 153 174 196 178 165 189 166 149 265 216 209 219 197 183 184 190 198 202 197 181 151 167 256 229 170 204 210 227 274 269 249 119 127 132 151 170 170 167 186 202 201 191 181 174 173 178
236 265 162 165 173 168 162 177 352 142 181 200 212 219 231 331 255 218 218 195 201 222 187 203 197 183 176 180 177 162 162 182 187 186 207 207 207 214 188 168 161 158 154 169 197 186 138 127 149 175 202 199 206 61 124 117 137 192 221 210 187 176 169 173 216 221 175 238 242 224 272 270 261 73 56 85 110 116 98 89 118 190 184 172 170 171 175 188
241 269 155 172 174 165 158 198 128 136 240 227 246 268 309 349 327 235 218 200 199 202 190 201 200 194 188 179 172 163 166 182 193 193 207 213 213 212 185 169 158 159 158 156 185 163 94 109 156 204 212 108 45 47 70 58 56 331 280 234 160 187 195 180 193 194 164 216 221 204 250 265 309 11 51 75 66 52 40 18 17 226 210 175 169 187 188 190
241 293 125 179 176 166 168 198 154 185 214 186 252 250 273 340 315 283 247 214 207 196 194 203 199 203 201 180 175 175 176 186 201 202 204 204 219 238 185 167 158 163 171 173 171 164 163 168 151 152 207 286 357 351 1 8 26 218 230 207 203 204 189 177 194 172 224 224 204 194 242 249 288 1 20 42 39 355 305 298 271 224 221 188 191 219 209 182
243 241 330 193 185 178 190 188 155 184 194 160 189 221 239 270 241 263 308 296 267 224 211 215 197 200 201 177 187 184 183 195 204 201 206 201 218 306 195 169 167 177 188 180 170 163 164 174 162 164 199 222 231 218 207 198 156 218 221 205 211 207 186 185 194 188 230 234 209 204 247 251 252 48 35 27 47 276 279 279 273 268 259 246 237 227 205 177
241 223 178 198 206 208 208 172 152 171 181 171 179 205 214 221 234 241 246 283 299 314 333 313 195 195 186 164 201 200 191 203 204 187 200 197 182 338 310 174 175 177 157 146 162 156 137 180 186 188 206 221 227 220 179 153 150 195 213 203 204 208 199 193 190 206 225 240 233 226 242 259 262 238 151 319 292 250 266 262 258 270 267 263 259 248 231 213
239 235 186 176 217 228 212 170 166 181 179 179 180 176 196 212 225 217 195 223 265 50 19 346 227 198 191 183 203 212 196 205 209 198 191 179 142 25 7 16 164 157 134 146 158 129 108 201 205 204 219 229 230 218 167 159 174 196 204 201 200 204 202 201 214 222 218 221 250 242 227 254 265 251 211 249 262 252 251 241 230 235 244 254 259 263 265 254
234 271 190 171 167 209 217 186 178 186 181 179 185 172 185 202 212 205 195 211 238 213 131 296 279 224 205 195 201 211 203 203 213 211 197 162 116 110 49 7 356 105 125 155 151 113 138 204 216 212 226 237 238 223 174 171 187 193 194 197 196 198 203 208 222 230 219 208 248 254 236 243 266 267 226 230 261 264 254 248 243 242 255 270 269 264 265 260
224 276 298 297 213 182 231 211 186 186 182 180 195 202 187 194 204 206 195 191 219 219 179 214 244 236 229 216 206 209 209 206 214 216 195 149 138 152 148 274 310 350 85 153 167 134 164 204 216 212 226 241 243 234 202 193 205 196 196 198 193 198 205 210 221 229 228 231 245 258 261 256 263 270 263 255 270 279 283 279 277 280 282 282 275 267 265 260
215 266 239 235 247 205 331 236 190 193 186 180 196 208 193 196 201 202 195 179 196 205 192 213 230 223 226 237 222 222 223 213 223 225 184 158 181 184 175 183 166 97 125 165 182 249 203 210 207 191 220 246 245 241 225 206 214 229 237 229 213 209 210 212 220 225 228 237 242 251 264 264 259 265 278 280 275 282 288 280 278 282 282 282 282 277 273 269
242 331 23 286 250 204 197 190 188 209 200 185 197 195 192 207 202 194 198 193 194 196 191 208 221 219 218 229 231 241 241 129 109 234 137 150 180 174 166 180 150 146 173 174 160 173 188 215 139 129 204 242 240 229 202 134 68 290 264 249 236 226 215 207 211 216 219 229 240 247 257 262 264 271 282 280 279 279 278 277 277 277 277 284 288 283 277 274
235 267 321 292 267 210 203 203 198 215 209 190 209 203 195 211 201 183 195 207 205 205 197 207 216 211 210 222 225 232 225 127 116 125 94 96 89 70 73 128 130 146 169 165 145 160 164 169 170 153 203 244 240 187 131 108 90 253 244 239 234 231 229 225 227 228 221 213 224 238 242 254 270 278 274 277 282 275 272 278 279 278 284 292 289 285 281 276